| time (UTC) | temp F | wind direction | speed knots | gust knots | rain 1hr in | rain 24hr in | rain mn in | humidity % | barometer mb |
| 20260504151010 | 67 | 198 | 0.0 | 7.0 | 0.00 | 0.00 | 0.00 | 35 | 1014.0 |
| 20260504150510 | 67 | 333 | 0.9 | 7.0 | 0.00 | 0.00 | 0.00 | 36 | 1013.9 |
| 20260504141019 | 64 | 114 | 0.9 | 5.2 | 0.00 | 0.00 | 0.00 | 42 | 1014.1 |
| 20260504140510 | 63 | 163 | 0.9 | 4.3 | 0.00 | 0.00 | 0.00 | 43 | 1014.1 |
| 20260504130511 | 58 | 143 | 0.9 | 2.6 | 0.00 | 0.00 | 0.00 | 50 | 1014.8 |
| 20260504110510 | 48 | 0 | 0.0 | 0.9 | 0.00 | 0.00 | 0.00 | 68 | 1015.0 |
| 20260504100508 | 50 | 0 | 0.0 | 0.0 | 0.00 | 0.00 | 0.00 | 65 | 1014.9 |
| 20260504081533 | 47 | 0 | 0.0 | 1.7 | 0.00 | 0.00 | 0.00 | 74 | 1015.0 |
| 20260504081014 | 47 | 0 | 0.0 | 0.9 | 0.00 | 0.00 | 0.00 | 74 | 1015.1 |
| 20260504080517 | 47 | 0 | 0.0 | 0.0 | 0.00 | 0.00 | 0.00 | 74 | 1015.2 |
| 20260504050508 | 45 | 0 | 0.0 | 0.0 | 0.00 | 0.00 | 0.00 | 66 | 1015.6 |
| 20260504045511 | 45 | 0 | 0.0 | 0.0 | 0.00 | 0.00 | 0.00 | 65 | 1015.6 |
| 20260504045016 | 45 | 0 | 0.0 | 0.0 | 0.00 | 0.00 | 0.00 | 66 | 1015.5 |
| 20260504044528 | 45 | 0 | 0.0 | 0.0 | 0.00 | 0.00 | 0.00 | 70 | 1015.6 |
| 20260504044011 | 45 | 0 | 0.0 | 0.0 | 0.00 | 0.00 | 0.00 | 68 | 1015.6 |
| 20260504043512 | 45 | 0 | 0.0 | 0.0 | 0.00 | 0.00 | 0.00 | 66 | 1015.5 |
| 20260504043030 | 45 | 0 | 0.0 | 0.9 | 0.00 | 0.00 | 0.00 | 66 | 1015.5 |
| 20260504042512 | 45 | 0 | 0.0 | 0.9 | 0.00 | 0.00 | 0.00 | 67 | 1015.5 |
| 20260504042011 | 45 | 0 | 0.0 | 0.9 | 0.00 | 0.00 | 0.00 | 66 | 1015.5 |
| 20260504041529 | 45 | 0 | 0.0 | 0.0 | 0.00 | 0.00 | 0.00 | 65 | 1015.4 |
| 20260504041008 | 45 | 0 | 0.0 | 0.0 | 0.00 | 0.00 | 0.00 | 65 | 1015.4 |
| 20260504040511 | 45 | 0 | 0.0 | 0.0 | 0.00 | 0.00 | 0.00 | 67 | 1015.4 |
| 20260504040029 | 45 | 0 | 0.0 | 0.0 | 0.00 | 0.00 | 0.00 | 68 | 1015.4 |
| 20260504035508 | 45 | 0 | 0.0 | 0.0 | 0.00 | 0.00 | 0.00 | 66 | 1015.5 |
| 20260504035010 | 45 | 0 | 0.0 | 0.0 | 0.00 | 0.00 | 0.00 | 64 | 1015.6 |
| 20260504034528 | 45 | 0 | 0.0 | 0.0 | 0.00 | 0.00 | 0.00 | 67 | 1015.5 |
| 20260504034011 | 45 | 0 | 0.0 | 0.0 | 0.00 | 0.00 | 0.00 | 66 | 1015.5 |
| 20260504033508 | 45 | 0 | 0.0 | 0.0 | 0.00 | 0.00 | 0.00 | 66 | 1015.4 |
| 20260504033028 | 45 | 0 | 0.0 | 0.0 | 0.00 | 0.00 | 0.00 | 67 | 1015.4 |
| 20260504032512 | 45 | 0 | 0.0 | 0.0 | 0.00 | 0.00 | 0.00 | 68 | 1015.3 |
| 20260504032013 | 45 | 0 | 0.0 | 0.0 | 0.00 | 0.00 | 0.00 | 68 | 1015.3 |
| 20260504031530 | 45 | 0 | 0.0 | 0.0 | 0.00 | 0.00 | 0.00 | 68 | 1015.3 |
| 20260504031011 | 46 | 0 | 0.0 | 0.0 | 0.00 | 0.00 | 0.00 | 66 | 1015.3 |
| 20260504030512 | 46 | 0 | 0.0 | 0.0 | 0.00 | 0.00 | 0.00 | 66 | 1015.3 |
| 20260504030034 | 46 | 0 | 0.0 | 0.0 | 0.00 | 0.00 | 0.00 | 67 | 1015.2 |
| 20260504025511 | 46 | 0 | 0.0 | 0.0 | 0.00 | 0.00 | 0.00 | 67 | 1015.3 |
| 20260504025014 | 46 | 0 | 0.0 | 0.0 | 0.00 | 0.00 | 0.00 | 67 | 1015.2 |
| 20260504024529 | 46 | 0 | 0.0 | 0.0 | 0.00 | 0.00 | 0.00 | 65 | 1015.2 |
| 20260504024010 | 47 | 0 | 0.0 | 0.0 | 0.00 | 0.00 | 0.00 | 65 | 1015.1 |
| 20260504023509 | 47 | 0 | 0.0 | 0.0 | 0.00 | 0.00 | 0.00 | 64 | 1015.2 |
| 20260504023028 | 47 | 0 | 0.0 | 0.0 | 0.00 | 0.00 | 0.00 | 64 | 1015.2 |
| 20260504022510 | 47 | 0 | 0.0 | 0.0 | 0.00 | 0.00 | 0.00 | 63 | 1015.1 |
| 20260504022009 | 47 | 0 | 0.0 | 0.0 | 0.00 | 0.00 | 0.00 | 62 | 1015.1 |
| 20260504021535 | 48 | 0 | 0.0 | 0.0 | 0.00 | 0.00 | 0.00 | 60 | 1015.1 |
| 20260504021011 | 48 | 0 | 0.0 | 0.0 | 0.00 | 0.00 | 0.00 | 59 | 1014.9 |
| 20260504020511 | 48 | 0 | 0.0 | 0.0 | 0.00 | 0.00 | 0.00 | 58 | 1015.0 |
| 20260504020035 | 48 | 0 | 0.0 | 0.0 | 0.00 | 0.00 | 0.00 | 59 | 1015.0 |
| 20260504015511 | 48 | 0 | 0.0 | 0.0 | 0.00 | 0.00 | 0.00 | 59 | 1014.9 |
| 20260504015011 | 49 | 0 | 0.0 | 0.0 | 0.00 | 0.00 | 0.00 | 58 | 1014.9 |
| 20260504014530 | 49 | 0 | 0.0 | 0.0 | 0.00 | 0.00 | 0.00 | 55 | 1014.8 |
| 20260504014008 | 49 | 0 | 0.0 | 0.0 | 0.00 | 0.00 | 0.00 | 53 | 1014.7 |
| 20260504013511 | 50 | 0 | 0.0 | 0.0 | 0.00 | 0.00 | 0.00 | 55 | 1014.8 |
| 20260504013035 | 50 | 0 | 0.0 | 0.0 | 0.00 | 0.00 | 0.00 | 55 | 1014.8 |
| 20260504012508 | 50 | 0 | 0.0 | 0.0 | 0.00 | 0.00 | 0.00 | 53 | 1014.8 |
| 20260504012008 | 51 | 0 | 0.0 | 0.0 | 0.00 | 0.00 | 0.00 | 51 | 1014.6 |
| 20260504011528 | 51 | 0 | 0.0 | 0.0 | 0.00 | 0.00 | 0.00 | 51 | 1014.6 |
| 20260504011008 | 51 | 0 | 0.0 | 0.0 | 0.00 | 0.00 | 0.00 | 50 | 1014.7 |
| 20260504010508 | 52 | 0 | 0.0 | 0.0 | 0.00 | 0.00 | 0.00 | 49 | 1014.8 |
| 20260504010028 | 52 | 0 | 0.0 | 0.0 | 0.00 | 0.00 | 0.00 | 46 | 1014.8 |
| 20260504005507 | 53 | 0 | 0.0 | 0.0 | 0.00 | 0.00 | 0.00 | 45 | 1014.7 |
| 20260504005011 | 53 | 0 | 0.0 | 0.0 | 0.00 | 0.00 | 0.00 | 43 | 1014.7 |
| 20260504004539 | 53 | 0 | 0.0 | 0.0 | 0.00 | 0.00 | 0.00 | 43 | 1014.6 |
| 20260504004010 | 54 | 0 | 0.0 | 0.0 | 0.00 | 0.00 | 0.00 | 42 | 1014.7 |
| 20260504003510 | 54 | 0 | 0.0 | 0.0 | 0.00 | 0.00 | 0.00 | 42 | 1014.6 |
| 20260504003027 | 54 | 0 | 0.0 | 0.0 | 0.00 | 0.00 | 0.00 | 42 | 1014.6 |
| 20260504002508 | 55 | 0 | 0.0 | 0.0 | 0.00 | 0.00 | 0.00 | 41 | 1014.5 |
| 20260504002008 | 55 | 0 | 0.0 | 0.0 | 0.00 | 0.00 | 0.00 | 41 | 1014.4 |
| 20260504001535 | 55 | 0 | 0.0 | 0.0 | 0.00 | 0.00 | 0.00 | 40 | 1014.3 |
| 20260504001008 | 56 | 0 | 0.0 | 0.0 | 0.00 | 0.00 | 0.00 | 40 | 1014.3 |
| 20260504000511 | 56 | 0 | 0.0 | 0.0 | 0.00 | 0.00 | 0.00 | 37 | 1014.3 |
| 20260504000028 | 57 | 0 | 0.0 | 0.0 | 0.00 | 0.00 | 0.00 | 36 | 1014.3 |
| 20260503235509 | 57 | 0 | 0.0 | 0.0 | 0.00 | 0.00 | 0.00 | 36 | 1014.2 |
| 20260503235010 | 58 | 0 | 0.0 | 0.0 | 0.00 | 0.00 | 0.00 | 36 | 1014.2 |
| 20260503234534 | 58 | 0 | 0.0 | 0.9 | 0.00 | 0.00 | 0.00 | 35 | 1014.2 |
| 20260503234011 | 58 | 0 | 0.0 | 0.9 | 0.00 | 0.00 | 0.00 | 36 | 1014.1 |
| 20260503233510 | 58 | 0 | 0.0 | 0.9 | 0.00 | 0.00 | 0.00 | 35 | 1014.0 |
| 20260503233027 | 59 | 0 | 0.0 | 0.9 | 0.00 | 0.00 | 0.00 | 34 | 1013.9 |
| 20260503232508 | 59 | 292 | 0.0 | 1.7 | 0.00 | 0.00 | 0.00 | 34 | 1013.8 |
| 20260503232011 | 59 | 0 | 0.0 | 1.7 | 0.00 | 0.00 | 0.00 | 34 | 1013.9 |
| 20260503231528 | 59 | 0 | 0.0 | 4.3 | 0.00 | 0.00 | 0.00 | 33 | 1013.8 |
| 20260503231009 | 60 | 0 | 0.0 | 4.3 | 0.00 | 0.00 | 0.00 | 33 | 1013.8 |
| 20260503230508 | 60 | 292 | 0.0 | 4.3 | 0.00 | 0.00 | 0.00 | 32 | 1013.8 |
| 20260503230030 | 60 | 0 | 0.0 | 4.3 | 0.00 | 0.00 | 0.00 | 31 | 1013.7 |
| 20260503225509 | 60 | 282 | 0.0 | 4.3 | 0.00 | 0.00 | 0.00 | 31 | 1013.8 |
| 20260503225007 | 60 | 215 | 0.9 | 4.3 | 0.00 | 0.00 | 0.00 | 30 | 1013.9 |
| 20260503224529 | 60 | 0 | 0.0 | 2.6 | 0.00 | 0.00 | 0.00 | 31 | 1013.9 |
| 20260503224009 | 61 | 294 | 0.0 | 2.6 | 0.00 | 0.00 | 0.00 | 32 | 1013.9 |
| 20260503223512 | 61 | 0 | 0.0 | 3.5 | 0.00 | 0.00 | 0.00 | 31 | 1013.9 |
| 20260503223028 | 61 | 265 | 0.9 | 4.3 | 0.00 | 0.00 | 0.00 | 32 | 1014.0 |
| 20260503222510 | 61 | 0 | 0.9 | 4.3 | 0.00 | 0.00 | 0.00 | 29 | 1013.9 |
| 20260503222010 | 62 | 283 | 0.0 | 2.6 | 0.00 | 0.00 | 0.00 | 30 | 1014.0 |
| 20260503221534 | 62 | 229 | 0.0 | 1.7 | 0.00 | 0.00 | 0.00 | 31 | 1014.0 |
| 20260503221010 | 62 | 0 | 0.0 | 6.1 | 0.00 | 0.00 | 0.00 | 30 | 1014.0 |
| 20260503220511 | 63 | 0 | 0.0 | 6.1 | 0.00 | 0.00 | 0.00 | 30 | 1014.0 |
| 20260503220034 | 63 | 221 | 0.9 | 7.0 | 0.00 | 0.00 | 0.00 | 30 | 1014.1 |
| 20260503215513 | 63 | 281 | 1.7 | 7.0 | 0.00 | 0.00 | 0.00 | 29 | 1014.0 |
| 20260503215011 | 63 | 269 | 0.9 | 6.1 | 0.00 | 0.00 | 0.00 | 30 | 1014.0 |
| 20260503214537 | 62 | 276 | 0.9 | 8.7 | 0.00 | 0.00 | 0.00 | 30 | 1014.2 |
| 20260503214011 | 63 | 308 | 2.6 | 8.7 | 0.00 | 0.00 | 0.00 | 30 | 1014.1 |
| 20260503213511 | 63 | 263 | 1.7 | 6.1 | 0.00 | 0.00 | 0.00 | 29 | 1014.1 |
| 20260503213034 | 63 | 235 | 0.9 | 5.2 | 0.00 | 0.00 | 0.00 | 28 | 1014.1 |
| 20260503212511 | 63 | 0 | 0.9 | 3.5 | 0.00 | 0.00 | 0.00 | 31 | 1014.2 |
| 20260503212015 | 63 | 28 | 0.0 | 6.1 | 0.00 | 0.00 | 0.00 | 30 | 1014.2 |
| 20260503211531 | 63 | 284 | 0.0 | 6.1 | 0.00 | 0.00 | 0.00 | 31 | 1014.1 |
| 20260503211010 | 63 | 213 | 0.9 | 4.3 | 0.00 | 0.00 | 0.00 | 30 | 1014.0 |
| 20260503210510 | 63 | 202 | 0.9 | 6.1 | 0.00 | 0.00 | 0.00 | 30 | 1014.1 |
| 20260503210028 | 63 | 221 | 0.9 | 6.1 | 0.00 | 0.00 | 0.00 | 31 | 1014.2 |
| 20260503205514 | 63 | 196 | 1.7 | 7.0 | 0.00 | 0.00 | 0.00 | 29 | 1014.2 |
| 20260503205013 | 63 | 299 | 1.7 | 7.0 | 0.00 | 0.00 | 0.00 | 29 | 1014.2 |
| 20260503204532 | 63 | 215 | 1.7 | 7.0 | 0.00 | 0.00 | 0.00 | 29 | 1014.2 |
| 20260503204011 | 63 | 298 | 0.9 | 5.2 | 0.00 | 0.00 | 0.00 | 31 | 1014.2 |
| 20260503203513 | 63 | 270 | 1.7 | 9.6 | 0.00 | 0.00 | 0.00 | 31 | 1014.2 |
| 20260503203027 | 62 | 0 | 1.7 | 9.6 | 0.00 | 0.00 | 0.00 | 33 | 1014.1 |
| 20260503202516 | 63 | 314 | 1.7 | 9.6 | 0.00 | 0.00 | 0.00 | 31 | 1014.2 |
| 20260503202014 | 63 | 334 | 0.9 | 4.3 | 0.00 | 0.00 | 0.00 | 34 | 1014.3 |
| 20260503201530 | 62 | 0 | 0.9 | 6.1 | 0.00 | 0.00 | 0.00 | 35 | 1014.3 |
| 20260503201012 | 61 | 239 | 0.0 | 6.1 | 0.00 | 0.00 | 0.00 | 37 | 1014.4 |
| 20260503200512 | 61 | 257 | 1.7 | 8.7 | 0.00 | 0.00 | 0.00 | 33 | 1014.5 |
| 20260503200031 | 62 | 289 | 1.7 | 8.7 | 0.00 | 0.00 | 0.00 | 31 | 1014.5 |
| 20260503195511 | 62 | 208 | 1.7 | 8.7 | 0.00 | 0.00 | 0.00 | 31 | 1014.7 |
| 20260503195009 | 62 | 355 | 1.7 | 8.7 | 0.00 | 0.00 | 0.00 | 34 | 1014.7 |
| 20260503194532 | 62 | 291 | 0.9 | 6.1 | 0.00 | 0.00 | 0.00 | 34 | 1014.8 |
| 20260503194009 | 62 | 0 | 0.9 | 6.1 | 0.00 | 0.00 | 0.00 | 34 | 1014.8 |
| 20260503193512 | 62 | 321 | 0.9 | 7.0 | 0.00 | 0.00 | 0.00 | 32 | 1015.0 |
| 20260503193029 | 62 | 0 | 1.7 | 7.0 | 0.00 | 0.00 | 0.00 | 35 | 1015.0 |
| 20260503192514 | 61 | 252 | 0.9 | 7.0 | 0.00 | 0.00 | 0.00 | 35 | 1015.2 |
| 20260503192013 | 61 | 208 | 2.6 | 7.0 | 0.00 | 0.00 | 0.00 | 34 | 1015.2 |
| 20260503191529 | 61 | 177 | 2.6 | 7.0 | 0.00 | 0.00 | 0.00 | 35 | 1015.1 |
| 20260503191007 | 61 | 313 | 0.9 | 8.7 | 0.00 | 0.00 | 0.00 | 36 | 1015.2 |
| 20260503190507 | 61 | 0 | 1.7 | 8.7 | 0.00 | 0.00 | 0.00 | 36 | 1015.3 |
| 20260503190038 | 61 | 257 | 0.9 | 3.5 | 0.00 | 0.00 | 0.00 | 34 | 1015.4 |
| 20260503185510 | 61 | 207 | 0.0 | 3.5 | 0.00 | 0.00 | 0.00 | 39 | 1015.4 |
| 20260503185010 | 61 | 28 | 0.9 | 6.1 | 0.00 | 0.00 | 0.00 | 36 | 1015.5 |
| 20260503184527 | 61 | 207 | 0.9 | 6.1 | 0.00 | 0.00 | 0.00 | 38 | 1015.6 |
| 20260503184012 | 60 | 275 | 1.7 | 6.1 | 0.00 | 0.00 | 0.00 | 39 | 1015.7 |
| 20260503183512 | 60 | 0 | 0.0 | 4.3 | 0.00 | 0.00 | 0.00 | 37 | 1015.7 |
| 20260503183036 | 60 | 153 | 0.9 | 6.1 | 0.00 | 0.00 | 0.00 | 40 | 1015.8 |
| 20260503182509 | 59 | 254 | 0.9 | 8.7 | 0.00 | 0.00 | 0.00 | 40 | 1015.9 |
| 20260503182011 | 59 | 215 | 2.6 | 8.7 | 0.00 | 0.00 | 0.00 | 39 | 1016.0 |
| 20260503181546 | 58 | 309 | 0.9 | 6.1 | 0.00 | 0.00 | 0.00 | 37 | 1015.9 |
| 20260503181008 | 58 | 111 | 0.9 | 7.0 | 0.00 | 0.00 | 0.00 | 35 | 1015.9 |
| 20260503180507 | 59 | 0 | 0.0 | 7.0 | 0.00 | 0.00 | 0.00 | 37 | 1016.0 |
| 20260503180041 | 59 | 219 | 0.9 | 7.0 | 0.00 | 0.00 | 0.00 | 40 | 1016.1 |
| 20260503175511 | 59 | 290 | 0.9 | 7.0 | 0.00 | 0.00 | 0.00 | 43 | 1016.0 |
| 20260503175008 | 58 | 335 | 0.9 | 7.8 | 0.00 | 0.00 | 0.00 | 38 | 1016.2 |
| 20260503174527 | 58 | 320 | 2.6 | 7.8 | 0.00 | 0.00 | 0.00 | 36 | 1016.2 |
| 20260503174013 | 58 | 284 | 1.7 | 8.7 | 0.00 | 0.00 | 0.00 | 43 | 1016.2 |
| 20260503173511 | 57 | 275 | 1.7 | 8.7 | 0.00 | 0.00 | 0.00 | 39 | 1016.2 |
| 20260503173028 | 58 | 183 | 0.9 | 7.0 | 0.00 | 0.00 | 0.00 | 39 | 1016.2 |
| 20260503172510 | 57 | 304 | 0.0 | 7.0 | 0.00 | 0.00 | 0.00 | 40 | 1016.2 |
| 20260503172011 | 58 | 194 | 0.9 | 7.0 | 0.00 | 0.00 | 0.00 | 40 | 1016.4 |
| 20260503171530 | 58 | 5 | 1.7 | 7.0 | 0.00 | 0.00 | 0.00 | 39 | 1016.4 |
| 20260503171007 | 57 | 289 | 0.0 | 6.1 | 0.00 | 0.00 | 0.00 | 42 | 1016.4 |
| 20260503170508 | 57 | 273 | 0.9 | 5.2 | 0.00 | 0.00 | 0.00 | 41 | 1016.4 |